{"data":{"norad_id":61856,"epoch":"2026-05-24T12:03:39.237408Z","epoch_age_seconds":115050,"freshness":"FRESH","line1":"1 61856U 24202M   26144.50253747  .00002265  00000+0  91806-4 0  9998","line2":"2 61856  43.0010 169.7164 0001326 273.5852  86.4848 15.27581733 86930","mean_motion":15.27581733,"eccentricity":0.0001326,"inclination_deg":43.001,"raan_deg":169.7164,"arg_perigee_deg":273.5852,"mean_anomaly_deg":86.4848,"bstar":9.1806e-5,"rev_number":8693,"period_min":94.266641770585,"perigee_km":482.13411423087,"apogee_km":483.95369940736,"semimajor_km":6861.1809068191,"source":"CELESTRAK","updated_at":"2026-05-25T13:38:19.451894Z"}}